CZ-3B R/B, 43649

Orbit data source: Space-Track

CZ-3B R/B, 43649 is space debris in HEO originally from a launch on Mon, 15 Oct 2018 UTC launched from the Xichang Space Center, China (XSC). Debris objects in space refer to the collection of defunct objects orbiting the Earth. Examples of debris include non-operational satellites, rocket bodies, and fragments generated from explosions, collisions, or faulty payload assembly.

Loading next visibility...
Identifier
43649, 2018-078C
Orbit
HEO
Country
Flag of CNCN / PRC
Related business
Manufacturer
CALT
Mission
Spacecraft
Bus & Motor
CZ-3A STAGE 3, Unknown motor
Mass
~2,800 kg wet, ~2,800 kg dry
Launch date (UTC)
2018-10-15 (7 years ago)
Launch vehicle
Unknown
Launch site
Xichang Space Center, China (XSC)
Object type
Payload
Rocket body
Debris
Shape & HBR
Cyl + 1 Nozzle, 6.2 m
Radar Cross Section
32.704 m², Large (>1 m²)

Expand to show TLE details & history
Last TLE update: 5 days ago

TLE from 5 days ago
0 CZ-3B R/B
1 43649U 18078C   25298.18235500  .00000634  00000-0  83118-3 0  9997
2 43649  54.9779   7.1187 5511495 283.8787  23.1529  4.64374792118295
Epoch: 2025-10-25T04:22Z
TLE epoch observation values (Epoch: 2025-10-25T04:22:35.472Z)
Latitude
-0.00001°
Longitude
-92.3336°
Altitude
2,971.505 km
Speed
7.682 km/s
True Right ascension
00h 28m 31s
True Declination
0° 00' 00"
Sunlit
Object was in full shadow at epoch
Visualization orbit readout
Latitude
Unknown
Longitude
Unknown
Altitude
Unknown
Speed
Unknown
Apparent Right ascension
Unknown
Apparent Declination
Unknown
Sunlit
N/A
Visualization observer readout
Local Sidereal Time
13:44:34
Azimuth
Unknown
Elevation
Unknown
Doppler factor
Unknown
Orbital elements
Apogee altitude
17,162.009 km
Perigee altitude
433.59 km
Semi-major axis
15,175.936 km
Eccentricity
0.55115
Inclination
54.9779°
RAAN
7.1187°
Arg. of periapsis
283.8787°
True anomaly
76.26485°
Mean anomaly
23.1529°
Eccentric anomaly
45.78683°
Mean motion
1.16094 °/min
Orbital period
310.09 mins
BSTAR
0.00083118
Loading maneuver chart data...
Computing Atmospheric mass density...
Loading historical data...
Loading historical data...
Loading historical data...
Loading historical data...
Loading historical data...
Loading historical data...
Loading historical data...
Other satellites on launch #78 in the year 2018 (2018-10-15 UTC)

Documentation

Showing up to 5 results
|